Location: Clarion
(42.7316°N, 93.7330°W)
Time: 08:37:42
(UTC+00:00)

Cosmos 1125 Rocket - Pass Details

Date: 22 April 2026
Orbit: 752 x 776 km, 74.0° (Epoch: 17 May)

Event Time Altitude Azimuth Distance (km) Brightness Sun altitude
Rises 02:05:15 0° 202° (SSW) 3,205 6.7 -11.1°
Reaches altitude 10° 02:07:37 10° 203° (SSW) 2,288 5.9 -11.5°
Maximum altitude 02:12:48 79° 290° (WNW) 785 3.7 -12.4°
Drops below altitude 10° 02:18:05 10° 18° (NNE) 2,320 6.2 -13.2°
Sets 02:20:29 0° 20° (NNE) 3,254 6.9 -13.6°
